Location: Waco, TX
(31.5480°N, 97.1670°W)
Time: 03:04:44
(UTC-05:00)

ISS - Pass Details

Date: 19 September 2017
Orbit: 401 x 407 km, 51.6° (Epoch: 22 September)

Event Time Altitude Azimuth Distance (km) Brightness Sun altitude
Rises 07:23:31 0° 304° (WNW) 2,326 -0.5 0.9°
Reaches altitude 10° 07:25:45 10° 292° (WNW) 1,463 -1.6 1.4°
Maximum altitude 07:28:39 29° 231° (SW) 777 -2.8 2.0°
Drops below altitude 10° 07:31:31 10° 169° (SSE) 1,454 -0.8 2.6°
Sets 07:33:45 0° 157° (SSE) 2,309 0.3 3.1°
